Total_Precipitation_Accumulation
1.66 1.65 1.61 1.56 1.58 1.63 1.62 1.53 1.46 1.37 1.24 1.21 1.11 1.04 1.01 1.05 1.12 1.21 1.25 1.30 1.35 1.41 1.48 1.48 1.51 1.51 1.58 1.60 1.63 1.71 1.88 1.99 2.00 1.74 1.55 1.48 1.42 1.31 1.27 1.24 1.21 1.14 1.02
1.40 1.34 1.34 1.33 1.33 1.36 1.36 1.24 1.19 1.21 1.12 1.06 0.94 0.88 0.86 0.89 0.96 1.02 1.06 1.10 1.21 1.24 1.25 1.28 1.29 1.33 1.37 1.38 1.42 1.46 1.55 1.68 1.76 1.74 1.62 1.55 1.47 1.36 1.33 1.34 1.12 0.95 0.93
1.26 1.23 1.19 1.19 1.19 1.20 1.19 1.16 1.11 1.12 1.10 1.01 0.90 0.85 0.83 0.83 0.84 0.89 0.94 0.93 0.96 1.03 1.07 1.14 1.16 1.21 1.18 1.12 1.18 1.27 1.33 1.40 1.59 1.61 1.53 1.47 1.37 1.26 1.35 1.27 1.17 1.23 0.93
1.15 1.14 1.14 1.12 1.12 1.10 1.13 1.19 1.16 1.07 1.00 0.93 0.87 0.82 0.79 0.77 0.78 0.80 0.78 0.81 0.86 0.91 0.93 0.97 1.00 1.04 1.06 1.09 1.11 1.24 1.30 1.41 1.50 1.52 1.48 1.44 1.36 1.27 1.37 1.38 1.35 1.32 1.09
1.03 1.03 1.04 1.02 1.00 0.98 1.03 1.07 1.10 1.07 0.99 0.94 0.87 0.80 0.71 0.65 0.64 0.66 0.67 0.70 0.79 0.80 0.84 0.83 0.82 0.87 0.96 0.97 0.95 1.06 1.20 1.36 1.38 1.40 1.40 1.43 1.37 1.39 1.37 1.32 1.33 1.34 1.23
1.06 1.06 1.04 1.03 0.98 0.96 0.96 0.99 0.96 0.92 0.91 0.88 0.81 0.74 0.66 0.56 0.59 0.60 0.59 0.64 0.74 0.78 0.77 0.75 0.71 0.70 0.77 0.84 0.85 0.92 1.05 1.17 1.25 1.33 1.35 1.38 1.39 1.47 1.49 1.45 1.43 1.44 1.44
0.99 0.97 0.97 0.96 0.92 0.90 0.85 0.85 0.86 0.93 0.93 0.86 0.78 0.74 0.73 0.66 0.52 0.45 0.48 0.57 0.72 0.73 0.72 0.76 0.70 0.65 0.74 0.78 0.81 0.80 0.84 0.86 0.98 1.19 1.34 1.40 1.50 1.63 1.71 1.64 1.56 1.53 1.54
0.89 0.89 0.86 0.83 0.83 0.86 0.80 0.79 0.83 0.88 0.87 0.87 0.85 0.86 0.87 0.72 0.52 0.39 0.44 0.59 0.68 0.62 0.62 0.71 0.77 0.80 0.75 0.74 0.76 0.80 0.83 0.83 0.86 0.94 1.18 1.27 1.28 1.45 1.64 1.67 1.62 1.54 1.53
0.85 0.84 0.76 0.71 0.78 0.80 0.76 0.76 0.82 0.80 0.80 0.80 0.82 0.90 0.92 0.78 0.59 0.46 0.47 0.59 0.66 0.64 0.63 0.61 0.63 0.70 0.69 0.73 0.81 0.95 0.99 0.99 0.80 0.85 0.97 1.05 1.09 1.22 1.34 1.49 1.65 1.74 1.71
0.83 0.80 0.74 0.73 0.76 0.80 0.81 0.80 0.74 0.75 0.73 0.68 0.74 0.83 0.84 0.76 0.58 0.46 0.46 0.50 0.60 0.71 0.77 0.75 0.70 0.66 0.64 0.69 0.84 1.00 1.07 1.07 1.08 1.21 1.33 1.33 1.31 1.35 1.29 1.44 1.71 1.82 1.78
0.74 0.73 0.75 0.77 0.73 0.70 0.74 0.76 0.74 0.67 0.69 0.68 0.69 0.76 0.80 0.66 0.52 0.45 0.50 0.54 0.60 0.70 0.78 0.83 0.77 0.71 0.67 0.67 0.73 0.88 0.99 1.01 1.22 1.58 1.63 1.52 1.43 1.39 1.29 1.32 1.51 1.66 1.75
0.80 0.82 0.78 0.72 0.60 0.57 0.68 0.71 0.69 0.69 0.71 0.74 0.75 0.78 0.74 0.59 0.47 0.43 0.49 0.54 0.56 0.65 0.78 0.75 0.72 0.70 0.66 0.69 0.72 0.82 0.90 1.05 1.35 1.70 1.69 1.51 1.36 1.27 1.20 1.13 1.22 1.36 1.52
0.90 0.87 0.81 0.69 0.61 0.60 0.65 0.67 0.65 0.66 0.63 0.61 0.63 0.68 0.65 0.56 0.50 0.44 0.45 0.47 0.48 0.54 0.65 0.67 0.66 0.64 0.67 0.78 0.84 0.90 1.02 1.24 1.45 1.57 1.50 1.32 1.19 1.13 1.07 1.05 1.06 1.20 1.29
0.91 0.83 0.79 0.72 0.64 0.58 0.57 0.54 0.58 0.60 0.59 0.59 0.56 0.58 0.55 0.51 0.45 0.40 0.41 0.42 0.42 0.45 0.53 0.63 0.72 0.77 0.84 0.97 1.10 1.19 1.21 1.26 1.29 1.35 1.29 1.16 1.05 1.04 1.04 0.96 1.00 1.10 1.23
0.88 0.74 0.68 0.63 0.60 0.59 0.53 0.47 0.48 0.51 0.52 0.51 0.47 0.42 0.42 0.40 0.35 0.38 0.39 0.39 0.40 0.42 0.47 0.61 0.83 0.96 1.06 1.10 1.14 1.21 1.21 1.13 1.09 1.06 1.04 1.01 1.01 1.02 0.99 0.90 0.93 0.99 1.11
0.75 0.65 0.56 0.50 0.49 0.43 0.44 0.42 0.39 0.38 0.39 0.41 0.40 0.34 0.30 0.31 0.32 0.33 0.34 0.34 0.37 0.42 0.48 0.67 0.85 0.94 1.02 1.08 1.09 1.09 1.06 1.01 0.95 0.94 0.93 0.88 0.86 0.89 0.93 0.92 0.92 0.97 1.06
0.66 0.59 0.50 0.45 0.43 0.38 0.39 0.47 0.49 0.39 0.32 0.33 0.32 0.32 0.29 0.28 0.27 0.27 0.28 0.28 0.32 0.40 0.50 0.69 0.80 0.85 0.95 1.04 1.00 0.97 0.98 0.92 0.86 0.82 0.82 0.80 0.74 0.76 0.85 0.91 0.95 0.99 1.03
0.54 0.47 0.44 0.43 0.40 0.39 0.39 0.41 0.45 0.50 0.49 0.38 0.26 0.23 0.23 0.26 0.25 0.25 0.27 0.28 0.36 0.43 0.57 0.72 0.79 0.79 0.83 0.87 0.88 0.90 0.92 0.87 0.82 0.81 0.81 0.80 0.77 0.75 0.80 0.87 0.92 0.92 0.94
0.49 0.47 0.46 0.45 0.41 0.38 0.37 0.38 0.41 0.45 0.50 0.45 0.35 0.26 0.24 0.29 0.32 0.34 0.34 0.36 0.43 0.49 0.54 0.60 0.69 0.74 0.77 0.78 0.78 0.76 0.79 0.81 0.77 0.76 0.77 0.76 0.77 0.77 0.78 0.78 0.77 0.72 0.74
0.45 0.42 0.43 0.44 0.43 0.41 0.38 0.40 0.43 0.47 0.48 0.47 0.39 0.33 0.34 0.40 0.44 0.42 0.39 0.38 0.42 0.47 0.51 0.58 0.64 0.66 0.68 0.70 0.67 0.64 0.64 0.65 0.66 0.65 0.64 0.67 0.69 0.70 0.71 0.70 0.70 0.68 0.68
0.40 0.39 0.37 0.37 0.37 0.35 0.35 0.36 0.41 0.48 0.49 0.47 0.39 0.36 0.42 0.45 0.50 0.49 0.47 0.44 0.45 0.47 0.49 0.55 0.59 0.60 0.57 0.57 0.59 0.58 0.57 0.56 0.55 0.58 0.57 0.56 0.56 0.55 0.51 0.49 0.48 0.49 0.54
0.37 0.34 0.30 0.29 0.30 0.32 0.34 0.34 0.39 0.42 0.42 0.43 0.41 0.39 0.42 0.41 0.45 0.46 0.48 0.47 0.47 0.46 0.49 0.54 0.55 0.53 0.51 0.52 0.58 0.58 0.55 0.49 0.46 0.50 0.51 0.48 0.45 0.43 0.43 0.42 0.40 0.40 0.44
0.35 0.32 0.28 0.25 0.27 0.32 0.35 0.39 0.41 0.44 0.44 0.44 0.41 0.40 0.40 0.43 0.44 0.48 0.50 0.45 0.42 0.43 0.44 0.46 0.48 0.49 0.48 0.48 0.50 0.47 0.48 0.47 0.44 0.43 0.50 0.51 0.47 0.43 0.43 0.41 0.38 0.38 0.39
0.31 0.31 0.31 0.29 0.33 0.40 0.39 0.37 0.39 0.41 0.42 0.44 0.42 0.39 0.39 0.41 0.43 0.47 0.51 0.51 0.48 0.46 0.43 0.44 0.46 0.46 0.45 0.47 0.46 0.40 0.37 0.40 0.40 0.41 0.46 0.46 0.45 0.45 0.46 0.44 0.41 0.42 0.43
0.26 0.28 0.31 0.32 0.35 0.39 0.39 0.39 0.40 0.41 0.42 0.46 0.46 0.43 0.42 0.38 0.38 0.37 0.42 0.46 0.46 0.45 0.42 0.39 0.38 0.37 0.37 0.36 0.35 0.35 0.38 0.39 0.38 0.40 0.43 0.43 0.38 0.39 0.42 0.40 0.39 0.40 0.42
0.24 0.28 0.30 0.32 0.36 0.39 0.40 0.41 0.42 0.42 0.41 0.40 0.41 0.44 0.43 0.41 0.39 0.37 0.38 0.39 0.39 0.37 0.37 0.38 0.36 0.32 0.29 0.26 0.28 0.33 0.33 0.29 0.28 0.31 0.36 0.42 0.40 0.38 0.40 0.39 0.35 0.38 0.40